GFSWCAN_sfc_temp_042.txt.gz
Temp
58 58 58 58 58 58 58 58 59 59 59 59 57 57 57 56 56 59 56 56 57 60 57 56 57 54 52 56 55 49 50 48 49 45 45 47 42 47 43 47 41 40 37 37 38 31 31 52 48 44 56 55 53 54
58 58 57 57 57 57 57 57 57 57 57 58 57 57 57 56 55 55 57 56 55 59 55 53 55 55 55 58 57 50 52 51 55 51 48 47 41 42 44 41 45 39 49 45 43 43 53 53 56 59 54 53 54 53
57 57 57 56 56 56 56 57 56 56 56 56 56 58 57 56 54 55 56 54 58 57 56 56 54 55 57 56 59 55 53 56 52 54 53 49 40 50 42 45 48 47 50 43 44 52 53 57 58 58 57 54 55 55
56 56 56 56 56 56 56 56 56 56 56 56 56 56 57 55 53 55 55 53 55 52 50 50 56 52 55 56 56 57 54 52 52 54 52 44 41 50 47 47 45 48 47 50 50 54 54 55 58 57 57 56 52 52
56 56 55 55 55 55 55 56 55 55 55 55 55 55 55 55 52 53 53 52 54 53 47 50 50 51 53 54 54 54 54 53 52 49 45 41 50 45 47 42 42 51 49 46 45 57 54 54 57 58 53 53 54 51
55 55 55 55 55 55 55 55 55 55 55 55 55 55 54 54 52 56 49 53 54 55 50 41 49 47 50 51 50 50 52 52 53 50 47 50 45 47 37 39 53 55 55 57 53 56 54 54 55 55 52 53 54 51
55 55 55 55 55 55 55 54 54 55 55 55 54 54 54 54 55 51 50 53 52 55 49 41 43 46 47 48 49 50 49 50 51 49 43 47 47 46 37 37 52 55 55 55 56 54 49 52 50 56 53 53 50 50
54 54 54 54 55 55 54 54 54 54 54 54 54 53 53 53 52 50 53 51 53 48 47 34 39 44 46 46 46 46 47 47 46 46 43 41 43 43 31 47 50 51 51 52 53 53 51 52 52 51 51 50 47 46
54 54 54 54 54 54 54 54 54 54 54 53 52 52 53 51 47 47 51 51 53 50 38 35 33 36 47 43 45 45 46 40 44 39 40 41 37 30 43 45 47 49 47 47 49 50 50 48 48 48 48 47 45 45
54 54 54 55 54 54 55 54 54 54 53 52 51 47 42 47 51 51 47 44 43 43 43 35 42 37 44 41 38 41 36 38 33 39 40 33 38 45 47 49 51 50 50 50 47 48 47 46 47 47 46 47 46 46
53 54 54 54 54 54 54 54 54 52 50 49 45 43 48 51 47 45 39 37 38 34 39 39 39 38 44 41 42 43 36 35 30 38 32 34 36 43 50 50 51 51 51 50 49 48 48 47 45 45 45 44 44 44
53 53 54 54 54 54 54 54 52 50 48 48 47 48 48 45 40 35 34 36 33 33 40 38 38 40 40 43 40 38 33 32 27 39 31 31 42 48 50 49 50 51 51 49 51 48 47 46 46 45 44 43 41 43
53 53 53 53 54 54 54 53 52 50 49 49 45 40 39 36 29 29 26 32 32 38 40 40 37 42 42 42 38 35 30 30 39 30 32 39 47 48 50 50 50 52 52 51 51 51 49 46 44 43 42 44 45 43
53 53 53 53 53 53 53 52 51 50 49 41 32 28 31 29 33 36 37 39 42 42 41 42 37 41 41 36 38 30 36 34 28 26 31 45 48 50 51 51 48 49 51 51 50 50 47 45 45 44 44 45 44 41
53 53 52 52 52 53 53 52 51 50 45 34 34 29 32 39 39 39 39 40 41 44 42 39 36 38 34 31 33 32 29 28 32 33 43 49 52 52 51 51 51 51 51 51 50 48 46 44 43 43 44 44 44 42
52 52 50 52 52 52 52 51 48 47 42 36 34 32 34 36 38 37 38 39 41 42 42 42 35 31 31 33 29 29 28 29 38 44 49 50 50 51 51 50 52 52 51 50 49 46 46 44 42 43 44 43 42 41
52 47 51 51 52 51 50 47 43 38 35 33 33 39 40 41 40 40 41 42 44 41 37 34 29 30 35 28 28 36 34 42 47 50 53 52 49 49 52 51 51 51 50 50 49 47 46 45 43 42 39 41 41 41
47 50 51 52 51 49 45 44 39 35 32 34 33 37 38 42 41 40 39 40 41 40 39 36 40 31 30 29 34 43 45 48 50 51 51 52 52 51 49 50 51 51 50 49 48 46 44 42 39 39 39 40 39 39
48 50 52 51 49 43 38 38 39 32 33 37 40 41 41 41 43 46 44 41 43 44 40 34 31 32 37 43 42 45 48 48 48 49 51 52 52 50 50 50 49 49 49 48 48 46 43 42 41 41 40 40 38 40
51 51 51 50 48 39 34 34 38 35 34 37 39 38 39 41 43 42 42 41 39 37 33 32 36 41 43 47 49 48 50 51 48 44 45 48 52 52 49 48 48 49 48 48 47 43 42 42 42 41 39 41 40 39
48 48 50 47 43 40 37 34 33 35 36 34 38 37 38 38 38 38 38 40 34 33 34 42 43 47 51 51 52 52 50 50 47 45 43 43 48 50 49 49 49 48 45 44 43 44 43 42 44 42 41 41 43 44
46 49 43 44 34 36 33 37 36 36 34 34 34 36 35 34 34 36 40 34 34 39 42 43 45 47 48 48 49 50 51 50 50 49 47 47 44 45 46 48 46 43 44 43 44 44 45 46 45 43 42 43 43 43
47 45 38 36 33 32 32 38 32 33 31 31 33 31 32 34 38 40 35 38 41 47 47 47 47 49 48 50 50 50 50 48 46 47 47 46 47 47 47 46 46 44 42 44 46 44 43 43 43 43 43 43 41 41
47 37 33 33 32 31 32 31 34 33 32 32 32 31 34 36 36 32 31 40 45 48 45 46 47 46 48 47 46 46 48 48 46 46 46 44 43 43 44 43 44 44 45 45 43 40 39 40 42 39 39 40 40 39
33 31 31 29 33 30 27 28 30 30 29 32 30 31 32 33 29 30 33 41 44 44 45 46 46 45 43 45 46 45 45 43 42 41 43 43 42 42 41 41 39 41 42 38 38 40 40 41 41 39 39 40 40 38
29 32 30 31 30 29 30 28 29 30 32 31 31 36 33 32 29 29 36 43 44 44 43 41 40 41 40 41 39 40 41 42 40 38 41 43 41 40 38 36 35 37 40 38 38 36 37 38 36 36 38 40 40 36
29 30 32 35 36 34 32 33 35 33 30 29 32 30 30 27 27 35 41 39 38 38 37 37 37 38 38 38 38 39 40 40 39 40 41 41 41 43 40 37 36 38 39 38 37 36 35 35 34 34 35 38 37 36
34 34 30 31 31 35 29 32 31 30 32 36 33 28 27 30 33 39 38 37 36 35 34 36 37 36 37 38 38 38 39 39 40 40 41 41 41 41 41 42 42 41 41 38 37 36 36 36 35 35 35 35 35 38
31 34 34 29 29 30 31 32 32 36 38 35 33 32 33 37 37 36 35 34 33 34 35 36 36 37 38 38 38 38 38 38 37 34 34 36 38 40 41 41 41 41 40 38 37 36 36 36 36 36 36 36 38 39
30 36 32 31 27 29 34 36 35 35 36 38 38 35 35 35 34 32 32 32 33 34 36 36 35 37 37 37 38 38 39 40 39 36 34 34 36 38 39 39 39 40 40 41 40 39 39 39 38 36 35 35 35 35
34 34 31 32 29 33 34 34 34 34 34 34 35 34 34 34 34 32 32 32 32 32 35 36 37 37 36 36 36 35 36 37 37 37 38 38 39 38 38 38 38 38 38 39 39 37 36 35 36 35 35 34 35 35
32 32 31 27 28 30 33 32 32 32 31 31 30 31 31 31 30 33 31 30 32 33 35 37 35 34 36 36 36 36 36 35 35 36 36 38 39 39 38 37 37 36 36 36 36 36 35 35 35 34 33 33 34 34
29 30 30 29 27 28 30 31 29 28 29 28 29 30 31 32 30 31 31 31 33 34 35 35 35 35 34 34 34 34 34 35 35 37 38 39 39 39 38 37 37 37 35 35 35 34 34 33 34 34 34 34 35 34

GFSWCAN_sfc_temp_045.txt.gz
Temp
59 59 59 59 58 58 59 59 59 59 59 58 58 57 57 57 56 64 62 64 63 67 62 63 63 61 60 63 60 58 55 54 54 50 51 52 48 53 49 54 48 46 43 42 44 38 34 58 52 48 56 58 58 58
59 59 58 58 58 58 58 58 57 58 57 58 57 57 57 57 56 58 62 65 63 64 60 61 61 61 60 60 64 59 60 59 62 56 56 55 47 50 47 44 54 44 52 48 50 46 60 60 56 60 60 57 57 57
58 58 58 57 57 57 57 57 56 56 56 56 56 58 57 56 56 59 62 62 66 64 61 61 58 61 63 62 64 58 62 63 59 60 58 55 46 55 46 50 53 55 58 48 49 55 59 62 64 63 62 58 58 58
58 57 57 57 56 56 56 56 56 56 56 56 56 56 56 54 55 58 61 60 63 62 57 56 61 57 60 62 60 61 59 60 60 60 56 49 45 57 50 53 48 56 53 52 52 56 58 60 60 59 58 59 58 59
57 57 56 56 56 56 56 56 56 55 55 55 55 55 56 53 54 60 60 59 60 58 54 57 57 57 59 59 58 58 58 57 57 54 51 45 54 51 52 50 46 56 52 48 47 55 54 55 59 60 57 56 57 55
56 56 56 56 56 55 55 55 55 55 55 55 55 55 55 53 53 60 55 59 59 59 56 44 54 53 55 56 55 55 57 56 56 54 52 55 54 50 39 42 55 59 60 59 53 58 57 57 58 60 56 56 57 56
56 56 55 55 55 55 55 55 55 55 55 55 54 54 54 54 60 55 51 55 54 60 54 43 47 50 51 53 54 55 54 56 55 53 49 51 52 49 41 39 54 58 57 56 58 57 53 56 54 57 56 55 55 55
55 55 55 55 55 55 54 54 55 55 55 54 54 53 53 53 52 53 56 54 55 55 52 38 44 48 51 50 49 53 52 51 50 50 48 46 50 47 34 48 54 55 55 56 56 56 55 56 57 56 56 54 52 51
55 55 55 55 55 55 54 54 54 54 54 53 53 53 57 56 52 50 51 52 58 53 39 37 35 39 52 49 51 50 52 42 49 42 46 47 42 33 45 50 52 53 52 52 54 55 56 53 53 54 54 52 49 49
54 55 55 55 55 55 55 55 54 54 53 52 54 53 47 48 51 52 50 49 48 47 46 38 47 40 49 48 45 46 42 40 37 42 45 36 38 47 51 54 54 55 55 55 50 49 50 50 51 51 51 52 50 50
54 54 54 54 54 54 54 54 54 52 51 53 50 47 50 51 51 49 44 41 41 36 42 43 44 43 49 43 44 47 38 39 32 40 36 36 39 49 55 55 57 57 56 56 55 55 55 53 51 50 50 51 49 48
54 54 54 54 54 54 54 53 52 53 54 51 52 53 52 48 44 38 38 40 35 36 42 40 42 44 45 49 44 40 35 34 28 43 33 32 46 53 55 55 56 57 56 55 56 54 55 54 53 51 50 49 47 47
54 54 54 53 54 54 53 52 52 51 51 54 50 43 42 40 31 31 29 34 33 40 41 43 39 43 45 47 42 39 31 32 43 33 32 43 52 54 55 56 56 58 57 56 56 56 55 54 54 52 49 49 49 47
53 53 53 53 53 53 52 51 51 51 52 44 34 29 34 31 36 41 43 45 47 47 43 44 39 41 43 39 39 31 39 39 30 28 34 48 53 56 57 58 56 55 55 55 55 55 54 53 53 52 50 50 48 46
53 53 53 52 53 53 52 51 51 54 50 36 36 30 33 44 46 47 49 47 47 50 47 41 39 40 36 33 35 34 30 28 34 36 46 53 56 57 56 57 56 56 55 54 55 54 53 51 51 50 50 49 48 47
53 52 52 52 52 52 51 51 52 52 47 39 36 35 41 40 43 43 44 45 48 48 47 47 38 33 32 37 31 31 30 30 40 48 52 56 55 56 56 56 56 56 56 55 54 54 53 50 49 49 49 48 47 46
52 51 52 52 52 51 51 48 44 39 36 34 34 42 44 45 47 47 48 48 50 44 39 39 30 31 39 31 30 38 36 43 49 52 55 55 54 54 55 55 55 55 54 54 54 54 52 53 51 48 44 47 46 45
49 51 52 52 52 50 48 46 41 35 32 35 34 40 44 48 46 45 48 49 47 45 44 40 44 35 32 31 34 43 47 51 54 55 56 56 56 56 55 55 54 54 53 53 53 53 52 49 46 44 44 44 44 43
51 51 51 52 51 45 39 38 40 32 34 38 42 45 45 46 48 49 50 47 49 51 46 37 33 33 37 44 44 47 50 51 50 52 54 55 56 54 54 54 54 53 52 52 52 51 49 48 46 46 46 45 41 41
52 51 51 51 51 41 34 35 38 36 34 37 43 43 44 44 47 47 47 47 45 42 34 32 36 42 44 49 52 52 53 54 52 47 48 52 54 53 53 52 52 53 52 52 51 49 49 48 47 46 45 44 42 40
51 50 50 49 44 41 37 33 33 37 38 39 43 43 41 44 43 42 41 45 39 34 34 42 44 49 52 53 55 54 54 53 50 49 46 46 51 52 52 52 53 52 50 49 48 47 47 47 49 50 47 44 44 45
47 49 43 44 34 34 33 37 37 37 36 36 38 41 38 37 38 40 44 39 35 40 43 45 48 49 50 51 52 54 54 54 53 52 49 49 47 48 48 50 50 47 47 47 47 47 47 49 51 51 49 47 47 47
48 45 38 35 33 32 32 39 33 33 31 33 37 34 35 37 41 47 38 41 42 48 49 49 50 52 51 53 53 53 54 52 51 50 50 50 50 50 50 49 49 46 44 46 47 46 44 47 47 45 45 44 45 45
46 36 32 32 33 31 33 32 35 35 37 35 35 32 36 40 42 36 36 41 47 52 51 51 51 50 51 51 51 51 53 53 51 50 50 48 46 47 48 48 48 47 45 43 41 40 40 42 43 43 43 42 42 41
32 32 32 29 33 30 29 29 31 32 31 33 33 35 37 40 34 33 34 42 48 50 51 51 50 49 47 48 50 51 53 49 46 45 48 48 46 46 45 45 45 45 43 39 37 37 38 40 41 42 41 38 37 38
29 31 30 32 31 31 31 29 31 32 35 34 34 40 39 35 30 31 40 47 49 49 49 48 47 46 46 48 45 45 46 48 45 42 45 47 45 41 39 39 38 40 42 40 38 37 36 37 37 38 38 37 38 38
29 30 33 40 39 39 36 40 41 38 34 32 36 35 32 28 30 39 48 48 45 44 43 43 43 43 44 43 43 45 46 45 43 44 45 45 45 44 42 39 38 41 43 41 39 37 36 35 36 36 36 37 38 40
35 37 31 32 35 39 33 36 35 34 36 41 39 31 30 33 37 47 46 43 43 40 40 41 41 42 42 43 44 44 44 44 44 45 46 46 46 45 45 44 44 42 42 40 38 36 36 36 35 35 35 35 37 37
33 38 40 31 34 35 34 37 37 42 45 42 38 37 38 45 46 44 41 40 39 39 40 40 40 41 42 42 42 43 43 42 40 37 36 38 41 42 44 43 42 44 44 42 41 39 36 36 36 36 36 35 36 37
34 41 37 35 31 32 39 43 43 47 45 46 46 42 42 41 42 40 39 37 37 38 41 42 41 40 40 40 40 40 43 43 42 39 36 36 37 41 41 39 39 41 42 42 40 39 40 39 38 36 35 35 35 35
39 40 37 36 34 40 44 43 40 40 39 40 42 40 42 42 41 39 38 39 40 39 39 38 38 40 39 39 38 37 36 39 39 39 39 40 40 41 40 40 39 38 38 38 38 38 37 36 36 35 34 34 34 35
37 35 35 32 34 34 37 36 36 36 37 36 36 38 36 36 35 40 37 36 36 36 38 39 38 38 39 39 39 38 37 37 37 38 37 38 38 39 40 40 39 39 37 36 36 36 36 36 36 35 34 34 35 35
33 33 34 32 29 30 34 34 33 32 33 33 34 36 36 36 34 37 35 37 38 39 39 40 40 39 38 38 38 37 37 37 37 37 38 39 39 39 39 39 40 39 37 36 34 35 34 34 34 35 34 34 34 34

GFSWCAN_sfc_temp_051.txt.gz
Temp
60 60 60 60 60 60 59 59 59 58 57 57 57 58 57 57 57 53 49 53 51 46 48 54 53 49 50 47 44 46 44 44 39 35 31 34 29 38 35 38 35 32 25 25 26 22 24 48 44 38 42 44 46 45
60 60 60 60 60 59 59 59 59 58 58 57 57 57 57 57 57 55 48 53 54 48 47 54 54 54 53 51 48 46 46 45 44 37 36 34 32 32 34 28 40 33 39 32 34 33 45 47 46 47 47 46 46 45
60 60 59 59 59 59 59 58 58 57 56 56 56 56 57 57 57 55 47 47 49 45 45 46 47 51 55 55 55 46 44 49 46 46 41 37 37 36 28 32 36 42 44 34 37 42 44 46 48 48 46 45 47 47
59 59 59 59 58 58 58 58 57 57 56 56 56 56 56 56 57 54 45 46 46 46 40 42 55 48 55 54 55 53 50 50 48 44 39 31 31 41 35 39 37 42 41 39 38 41 44 45 45 45 46 47 47 47
59 59 58 58 58 58 58 58 57 56 56 56 56 56 55 55 55 50 46 46 47 46 39 40 47 49 51 51 52 52 50 46 41 40 36 32 38 38 36 35 34 45 41 35 34 42 40 40 45 46 46 45 46 45
59 58 58 57 57 57 57 57 56 56 55 55 55 55 54 55 54 48 42 46 48 46 42 30 44 44 48 50 49 48 47 44 41 39 37 38 43 38 26 28 42 44 46 45 42 44 44 44 46 47 45 46 46 46
58 57 57 57 57 56 56 55 55 55 55 55 54 54 54 55 46 44 43 45 49 46 41 31 31 41 44 45 43 42 43 41 40 37 36 37 40 39 29 29 41 44 46 45 46 44 40 42 41 46 46 47 47 46
57 57 56 56 56 56 55 55 55 55 55 55 54 54 53 52 50 44 45 50 49 42 40 27 29 34 40 37 35 40 38 38 38 37 38 37 37 34 28 37 42 44 45 45 45 46 42 42 44 45 45 45 43 42
56 56 56 56 56 55 55 55 55 55 55 54 53 53 48 44 40 41 52 50 47 43 27 30 25 26 40 37 37 37 37 29 36 31 34 34 30 27 36 39 41 44 43 43 44 43 41 41 42 42 42 42 40 40
55 55 55 55 55 55 55 55 55 54 54 53 48 44 36 40 51 50 44 40 38 38 36 28 34 29 37 33 29 31 28 31 22 33 34 26 28 37 41 42 43 44 46 46 39 38 39 39 40 40 41 42 41 41
55 55 55 55 54 54 55 55 54 53 52 44 40 40 44 50 42 39 34 32 32 28 34 34 35 32 38 33 30 33 26 28 20 28 27 24 24 34 41 41 43 45 45 44 45 44 43 42 42 42 42 43 42 41
54 54 54 54 54 54 54 53 53 47 43 45 44 45 43 39 34 30 26 32 30 28 34 36 34 35 35 38 32 30 25 24 19 32 22 23 30 39 41 44 44 45 46 47 47 47 46 46 45 43 42 42 41 41
53 54 54 54 54 54 53 53 52 52 51 45 40 36 33 32 22 25 20 24 27 33 37 34 32 35 34 36 31 29 29 23 31 21 24 27 35 41 42 45 46 47 47 46 46 46 47 46 46 45 43 42 42 41
53 53 53 53 53 53 52 52 53 51 45 34 26 25 26 21 25 28 30 30 34 34 35 36 34 32 37 30 33 30 29 27 18 18 23 30 36 40 43 44 44 45 45 45 45 45 45 44 44 45 44 43 42 40
53 53 53 53 53 52 53 52 52 47 40 29 29 21 25 33 33 35 35 35 35 37 37 36 35 36 32 32 31 26 24 21 24 23 29 35 39 41 41 43 42 42 44 43 44 43 43 43 42 41 42 42 42 41
53 52 51 52 52 52 51 51 47 45 39 30 30 28 33 31 31 33 33 33 37 40 40 38 32 30 23 26 21 23 20 21 26 31 36 39 40 40 41 42 42 42 42 43 42 42 43 42 41 41 41 41 41 40
52 46 52 52 52 51 51 44 41 35 32 30 28 34 33 33 33 33 34 35 40 40 30 33 29 23 25 18 19 25 24 29 34 36 38 40 40 41 41 43 43 43 43 42 42 42 42 43 42 40 38 39 39 40
46 50 51 51 51 50 44 42 37 32 27 32 28 31 33 36 35 34 36 37 38 40 38 30 30 25 21 20 22 29 33 35 37 38 39 40 41 42 44 41 43 42 41 41 41 41 41 39 38 36 37 38 37 37
50 50 51 52 49 42 37 37 37 31 33 35 33 34 35 35 37 39 38 39 39 40 39 33 22 22 28 29 31 33 34 35 36 39 40 41 41 42 43 43 43 41 40 40 40 39 38 39 37 37 36 36 34 34
51 51 51 51 47 38 33 33 37 33 31 32 34 33 34 35 37 37 37 37 37 34 26 23 25 30 31 35 37 37 37 38 36 37 39 38 41 41 41 41 40 40 40 39 40 43 39 37 38 38 37 37 35 35
49 49 50 45 39 37 35 33 33 35 35 32 34 35 33 34 33 33 33 36 32 27 26 32 34 38 40 41 41 41 41 41 38 38 39 38 42 39 40 40 40 39 38 37 35 36 39 36 37 38 38 38 40 37
46 49 40 41 34 33 33 36 35 37 32 30 33 34 30 29 29 30 34 29 28 33 34 38 41 41 41 40 42 42 44 43 43 41 44 41 37 36 37 38 37 34 35 35 36 35 35 36 37 37 38 39 43 41
47 42 36 34 32 32 30 37 31 30 28 28 31 31 27 28 31 35 28 30 32 38 41 40 42 42 41 44 44 43 44 42 42 42 42 40 38 39 38 38 38 36 34 36 39 39 38 42 41 40 41 41 40 40
45 36 33 31 30 28 33 31 33 31 29 30 29 24 25 28 31 26 26 29 39 38 38 39 41 40 40 39 41 43 45 44 41 39 38 37 36 36 37 37 37 37 38 40 40 39 39 39 41 39 39 39 39 38
31 30 30 29 32 28 29 29 29 28 27 27 25 24 27 30 25 25 27 28 33 36 38 37 36 38 38 39 37 38 42 40 37 36 36 37 36 35 35 35 35 36 39 39 37 37 38 39 39 38 37 37 37 38
23 29 27 28 28 27 27 24 26 27 28 28 28 28 26 26 24 23 27 30 33 34 34 34 34 34 35 36 35 34 37 38 37 34 35 36 35 33 32 32 35 34 40 39 37 36 36 37 36 36 36 36 37 38
24 27 29 33 31 31 28 30 30 28 27 25 25 25 24 18 21 28 33 34 31 32 35 34 36 35 31 30 35 37 37 37 36 36 37 36 36 36 37 37 36 38 40 39 38 37 35 34 34 34 34 35 36 37
29 31 28 30 30 31 27 29 29 28 28 29 29 24 22 24 26 33 35 35 33 34 32 32 35 35 35 35 35 35 36 36 37 38 36 35 35 36 39 41 41 41 40 39 38 38 37 36 35 34 34 34 34 37
30 31 31 28 26 28 26 30 30 31 33 30 29 28 29 33 36 34 33 30 33 31 27 27 28 34 34 34 34 34 34 34 31 27 28 25 32 35 37 37 39 38 39 38 40 40 38 37 36 35 35 34 35 36
26 32 28 28 24 26 31 32 32 34 34 33 34 33 33 33 29 28 30 30 29 31 32 31 28 31 28 31 31 31 33 34 33 31 28 29 29 33 37 37 37 37 38 37 36 36 39 38 38 35 34 34 34 34
31 31 28 28 26 30 33 33 32 33 32 33 33 34 36 32 31 31 31 29 29 28 31 30 29 32 32 31 30 29 28 32 33 34 34 33 32 33 37 38 38 38 37 36 34 34 34 34 34 33 33 32 32 33
30 29 29 26 25 30 32 31 30 30 29 29 29 29 29 30 29 31 30 31 30 30 34 33 30 29 32 32 32 33 37 32 32 33 34 32 31 33 36 37 38 38 35 34 34 33 33 33 32 33 32 32 32 32
32 32 29 29 26 27 29 29 28 27 28 27 28 29 29 30 29 31 27 27 30 31 30 32 33 34 36 34 31 31 34 31 35 39 39 39 39 38 35 35 37 37 35 33 33 33 32 33 32 33 33 33 32 32

GFSWCAN_sfc_temp_057.txt.gz
Temp
60 60 59 60 60 60 60 60 59 59 58 57 58 58 58 58 57 52 46 48 50 43 43 47 48 46 45 44 42 42 42 42 37 33 30 31 26 35 32 34 33 32 24 23 22 20 24 43 42 38 39 40 41 40
59 59 59 59 60 60 60 60 59 59 58 57 57 57 57 58 58 53 47 49 49 45 44 47 48 47 47 48 45 41 44 40 41 35 31 30 30 30 33 29 34 30 36 29 31 31 41 41 41 42 43 42 39 39
57 59 58 59 60 60 60 60 59 58 57 56 56 56 57 57 57 53 44 44 45 42 42 43 43 48 51 48 49 43 41 45 42 42 36 34 35 33 28 30 30 37 39 33 34 37 40 41 42 43 43 41 43 41
56 58 58 58 59 59 60 60 59 58 57 56 56 56 57 56 55 52 45 42 45 43 38 39 49 44 49 48 50 48 47 44 42 40 36 27 30 37 32 35 34 39 38 36 34 36 39 39 41 42 42 42 41 42
56 57 57 58 59 59 59 59 59 58 57 56 56 56 55 55 53 47 42 42 43 48 36 36 42 45 45 46 47 48 46 42 38 37 34 30 34 33 30 31 29 37 38 34 33 40 38 37 41 43 42 40 40 40
55 57 57 57 59 59 59 58 58 57 56 56 56 56 55 54 52 47 44 45 45 44 39 29 38 40 43 44 44 43 42 39 36 36 34 34 37 34 23 24 36 39 41 41 40 39 41 41 43 43 40 40 41 40
55 57 56 57 58 58 58 57 57 56 56 56 55 55 53 52 45 44 44 44 48 43 39 29 29 38 39 40 38 39 38 36 37 33 33 33 34 33 23 22 38 39 40 39 40 42 37 40 39 42 41 43 43 42
55 56 56 57 58 58 57 57 56 56 56 55 55 54 53 52 49 44 45 49 45 40 38 26 26 32 37 33 33 34 34 34 34 32 32 32 33 28 23 34 37 40 38 38 40 39 40 40 40 40 42 41 40 40
55 56 57 57 58 57 57 56 56 55 55 54 53 52 47 42 40 41 51 48 42 42 27 23 25 24 36 32 32 33 32 27 31 28 31 31 27 23 34 36 37 40 39 40 39 38 38 38 40 41 39 40 38 39
54 56 56 57 57 57 56 56 55 55 54 53 47 43 37 40 50 49 42 39 36 33 33 26 29 27 33 28 26 28 25 24 22 28 30 24 27 34 36 38 39 41 41 40 37 35 37 38 40 39 40 40 39 39
53 55 56 57 56 55 55 55 55 53 52 44 40 37 41 49 41 36 32 32 30 28 31 30 31 30 35 31 28 29 24 24 20 26 26 24 23 31 36 37 38 39 40 41 41 42 42 42 41 40 40 40 39 39
54 55 56 56 54 54 54 54 53 49 46 46 44 44 41 37 32 30 26 29 27 30 30 30 31 32 32 34 30 27 23 21 19 27 21 22 28 35 36 38 38 40 39 40 41 42 42 41 41 39 38 38 39 39
54 54 56 55 54 54 54 53 54 51 51 45 41 36 33 27 23 28 22 24 24 29 30 30 29 32 32 32 28 24 20 21 28 19 23 26 31 36 36 38 40 40 41 41 42 42 43 42 42 40 39 40 39 38
53 53 54 54 53 53 53 53 52 51 45 38 33 27 30 21 26 30 31 30 31 31 33 31 28 31 30 28 25 20 25 24 16 16 22 28 32 36 37 39 40 38 39 39 41 41 41 41 40 41 40 39 38 38
53 53 53 52 52 52 53 52 52 46 41 33 33 32 24 31 30 30 30 30 31 38 33 30 29 30 22 23 22 23 26 24 22 22 26 31 34 36 36 38 37 38 40 40 39 40 40 39 38 38 39 39 38 38
53 53 52 51 51 52 52 51 46 43 37 32 28 26 29 30 28 31 30 31 32 34 33 31 25 20 22 24 19 21 19 19 24 27 31 33 33 35 35 37 39 37 37 38 38 38 38 38 37 37 37 37 37 37
53 47 50 50 51 51 51 44 41 35 31 25 26 33 33 36 33 31 35 32 41 36 26 26 17 19 22 14 18 23 22 27 29 31 33 34 35 36 36 35 37 38 38 37 37 37 37 38 37 36 35 37 36 36
46 49 50 50 50 49 42 40 35 30 26 31 26 31 33 35 35 33 32 39 36 32 31 28 27 22 20 17 21 27 28 30 31 32 34 35 35 35 38 37 38 38 37 37 36 36 36 35 34 33 34 34 34 34
48 48 50 50 49 44 36 36 35 24 28 31 32 34 35 34 35 36 39 36 36 36 33 24 20 21 26 27 29 29 29 31 33 34 35 35 35 36 38 37 37 35 35 35 35 36 35 35 32 32 30 33 28 32
49 49 50 51 48 38 33 32 34 31 29 32 34 33 34 33 34 34 39 34 34 34 26 22 26 29 30 32 33 34 34 35 33 31 33 35 36 36 36 36 36 35 35 35 35 39 34 34 34 34 34 36 37 35
47 48 49 43 38 37 34 32 31 32 33 32 33 34 31 33 32 31 31 33 30 28 26 31 31 34 36 36 37 37 36 35 33 33 33 30 35 34 35 35 34 34 33 33 32 33 35 33 34 34 38 39 40 38
45 48 40 41 33 33 33 35 34 34 32 32 33 33 31 30 28 30 31 30 29 36 33 33 35 37 35 35 36 36 38 37 36 35 39 38 33 33 34 35 33 30 32 32 33 33 33 33 34 35 38 39 41 41
46 44 35 34 32 32 30 35 30 30 29 29 31 28 27 28 29 32 29 31 33 34 36 37 38 38 38 38 37 37 37 36 34 34 35 34 34 34 34 34 34 33 32 32 34 33 33 38 37 39 39 40 39 38
44 35 31 30 31 28 32 29 32 31 29 28 27 24 27 27 28 26 27 29 31 33 33 35 36 33 33 33 33 35 36 36 35 34 34 33 32 33 34 34 34 33 34 33 33 33 33 33 37 35 37 36 37 36
33 29 31 27 31 25 28 27 29 28 27 28 28 26 25 28 23 25 27 28 29 30 33 32 32 33 32 32 32 34 37 36 34 33 34 34 33 31 31 31 31 33 34 32 31 32 36 36 37 36 33 35 35 35
24 28 27 27 26 27 27 26 28 28 29 28 28 26 25 26 21 22 27 29 29 30 29 31 31 29 30 32 32 31 35 35 34 32 33 33 33 32 30 30 30 30 34 34 34 36 36 36 35 35 35 35 36 35
24 24 28 31 31 31 29 30 31 31 28 25 25 25 24 18 21 28 30 30 28 29 31 31 34 33 31 27 32 34 33 34 35 35 34 33 34 34 33 30 30 32 35 37 38 37 35 35 34 34 34 35 35 34
29 31 28 30 30 32 28 29 29 28 28 28 29 25 25 26 26 31 32 33 29 32 30 31 34 34 33 33 33 33 32 33 34 33 32 32 32 33 34 34 35 41 36 35 35 35 36 35 35 34 34 33 34 35
29 32 32 28 29 30 29 30 29 30 31 31 29 28 29 31 33 32 31 27 31 30 29 28 26 31 31 31 32 32 32 32 31 29 29 25 31 29 32 34 34 33 34 37 40 39 38 38 36 36 35 34 34 34
29 33 30 29 27 27 29 30 29 30 30 32 32 31 31 31 26 24 28 28 28 29 30 28 28 31 28 30 29 29 31 31 32 31 28 27 27 30 31 32 32 33 34 37 35 35 38 37 37 35 34 33 33 33
31 31 28 28 25 28 28 30 30 31 30 30 30 31 30 31 32 29 30 27 25 26 29 26 26 28 30 30 29 29 28 30 31 32 32 30 30 30 31 32 32 33 34 36 34 33 31 33 33 32 32 32 32 33
30 29 28 25 25 28 30 30 29 29 29 29 29 28 28 29 30 32 30 28 29 30 33 32 30 29 30 31 31 31 37 31 31 32 32 30 30 30 31 31 32 33 33 34 34 33 33 32 32 32 31 32 32 32
27 28 28 26 24 26 27 28 27 24 26 26 27 28 28 30 30 32 25 25 29 30 30 30 31 32 31 31 31 31 34 30 33 37 38 37 36 34 32 31 31 34 33 33 33 32 32 32 31 31 31 31 32 31

GFSWCAN_sfc_temp_063.txt.gz
Temp
58 58 58 58 58 59 57 58 58 60 60 59 58 58 58 57 57 52 47 47 51 42 41 45 46 44 43 43 41 42 43 42 38 37 35 35 32 36 35 36 35 34 29 29 28 27 29 43 44 41 44 44 45 45
57 57 58 58 58 58 57 57 57 59 60 59 58 58 58 58 57 53 45 46 47 44 43 44 45 45 45 45 42 39 44 40 42 36 35 31 32 31 33 32 36 34 38 35 35 36 43 43 44 45 44 44 44 44
57 57 57 57 58 57 57 57 58 58 59 58 57 57 57 57 57 53 44 43 44 41 41 43 42 45 47 45 46 44 41 44 42 42 36 34 37 34 31 33 34 38 39 37 37 39 40 43 45 45 46 45 45 45
56 56 57 57 57 57 57 58 57 58 59 58 57 57 57 57 56 52 46 43 45 43 39 39 47 42 46 45 47 47 45 42 41 40 37 31 33 37 34 37 36 39 39 37 36 39 41 42 43 44 44 44 44 45
55 56 56 56 57 57 57 57 57 58 59 58 57 57 56 56 55 47 42 42 43 48 36 36 40 42 43 44 45 45 44 41 39 39 37 33 34 34 31 33 31 37 39 37 38 42 42 42 43 44 42 43 44 44
55 55 56 56 56 56 56 57 56 57 58 57 57 56 56 55 53 47 44 43 44 44 39 30 37 38 41 42 41 40 40 37 37 37 34 33 36 35 27 29 39 38 40 42 43 42 42 42 43 44 43 43 44 44
54 55 55 55 56 56 56 55 56 57 57 56 56 55 55 54 44 44 44 45 46 43 40 29 29 37 37 38 36 37 37 35 37 33 33 34 34 34 27 27 40 39 40 41 42 42 40 41 42 43 44 45 47 45
54 55 55 55 55 56 56 55 55 57 56 56 55 53 53 52 48 43 42 48 44 40 38 27 26 32 37 33 33 33 34 34 32 31 32 33 32 29 25 35 37 40 40 40 40 41 42 43 42 42 43 43 42 42
54 54 55 55 55 56 56 55 55 55 55 55 53 52 48 43 40 41 50 47 40 43 29 26 27 26 34 30 31 32 31 28 30 30 31 31 28 26 36 37 37 39 40 41 40 40 40 41 41 42 42 42 41 41
53 54 55 55 55 55 55 55 56 55 54 53 49 43 37 39 51 49 42 41 38 33 32 26 29 28 32 28 28 28 27 26 25 29 30 27 28 34 36 38 39 40 41 39 38 36 37 38 40 41 41 42 41 40
53 54 54 54 55 55 53 55 54 53 52 45 40 37 42 48 41 38 34 35 31 30 31 29 31 29 33 31 28 29 25 25 24 28 28 27 25 32 35 36 38 39 40 40 40 41 42 42 41 40 41 41 41 40
53 53 53 54 54 54 53 53 52 49 45 45 43 43 41 39 35 34 27 30 28 32 29 31 31 31 30 32 30 28 24 23 22 27 24 24 30 34 35 37 39 38 38 38 40 42 41 42 41 40 40 40 40 40
53 53 53 54 54 53 54 52 53 51 51 45 41 37 35 31 24 30 22 23 24 29 30 31 29 29 29 31 27 25 21 22 28 21 25 29 33 35 35 37 38 38 39 39 40 40 41 41 41 40 40 40 40 38
53 53 53 53 52 53 52 52 51 53 44 38 34 29 33 27 27 30 31 33 34 33 34 31 27 31 29 27 25 23 24 25 19 18 24 30 32 35 35 37 38 38 39 40 41 41 41 41 41 41 40 39 38 38
52 52 53 52 50 52 51 51 51 46 41 35 35 32 25 30 27 28 29 31 33 40 35 31 28 29 22 22 23 24 23 18 22 24 28 32 33 34 35 36 37 38 39 40 39 39 40 39 39 38 40 39 38 37
52 52 49 52 50 51 50 50 45 42 37 34 29 24 28 29 26 28 31 33 40 38 35 33 26 24 23 25 20 22 20 21 27 29 31 31 32 34 35 36 37 37 37 38 38 38 38 38 37 38 37 37 37 36
52 45 51 51 51 50 49 44 41 34 33 27 24 30 31 30 32 30 36 35 43 42 30 26 24 24 22 14 17 24 24 29 31 31 30 33 34 35 35 36 37 37 38 37 37 37 37 37 36 35 35 37 36 36
45 48 52 50 47 45 42 39 34 32 28 28 26 30 31 31 33 34 36 42 36 32 32 31 28 23 22 21 21 27 28 30 29 30 32 34 34 35 37 36 37 37 36 35 35 35 35 35 34 34 34 35 34 35
48 50 50 48 45 37 33 33 35 27 28 30 31 32 32 33 36 39 42 36 36 36 32 24 22 22 28 29 30 29 29 30 30 31 33 34 35 35 36 35 35 34 34 34 34 35 35 35 33 34 33 33 33 33
50 49 49 50 48 36 32 31 36 32 29 31 33 31 32 33 37 40 36 34 35 33 28 24 28 31 30 31 31 32 32 32 34 33 33 34 34 33 34 34 34 34 34 34 34 38 34 34 34 34 34 34 34 34
46 46 48 41 36 36 34 31 31 31 32 31 33 33 31 34 34 36 34 34 33 28 30 34 31 32 33 33 33 34 34 35 35 35 34 31 33 33 33 33 33 32 32 32 32 33 35 33 33 34 34 34 35 35
44 45 36 38 32 33 33 34 33 33 31 32 32 33 31 30 30 33 34 32 32 35 36 33 33 33 32 33 33 36 37 36 35 36 37 37 32 31 32 33 33 30 32 31 33 33 32 33 34 34 33 34 35 35
42 39 33 32 32 31 29 34 30 31 29 29 32 30 29 29 31 34 31 32 34 37 37 35 35 35 35 34 34 34 35 35 34 33 34 32 32 33 32 32 32 32 31 31 32 32 32 36 35 33 33 33 33 34
42 34 31 30 30 27 31 29 32 30 30 29 28 25 27 27 30 27 28 31 35 35 34 34 35 31 30 32 32 33 34 34 33 33 33 32 31 31 32 32 32 32 33 32 32 31 32 33 37 37 36 36 36 36
32 29 30 26 30 27 27 27 27 29 27 28 27 26 27 30 25 26 28 33 33 33 33 32 33 34 32 31 31 33 34 34 32 32 32 32 30 29 30 30 31 32 32 31 31 32 32 33 36 37 36 36 35 35
25 28 27 27 27 27 27 25 26 27 29 28 28 29 29 28 25 24 30 33 33 35 33 34 34 30 30 32 31 30 32 33 33 33 32 32 32 31 30 30 30 31 32 33 33 33 33 34 37 37 36 36 37 35
23 24 26 29 29 29 27 29 32 31 28 26 26 27 27 24 25 30 34 33 32 31 34 35 36 35 31 28 30 31 31 34 34 34 33 32 33 33 33 31 30 33 33 33 33 34 33 33 34 35 35 36 35 34
29 30 27 28 29 31 28 30 30 29 29 30 31 26 27 30 30 33 34 34 31 30 30 31 32 32 31 32 32 32 31 31 31 32 32 30 30 31 32 33 33 38 34 34 33 33 33 34 35 35 34 34 34 35
29 31 31 27 29 29 29 30 29 30 32 33 30 29 31 33 33 32 31 30 31 32 30 29 26 30 30 31 31 30 33 34 32 29 29 26 28 28 31 32 33 32 32 34 40 37 37 37 35 36 35 35 34 34
29 32 30 29 27 27 28 29 29 31 32 33 33 32 32 31 29 29 31 32 32 32 31 33 31 33 31 32 29 28 30 31 32 32 29 28 28 30 31 30 30 31 31 32 32 32 38 34 36 35 34 33 33 33
31 31 29 28 26 28 30 32 32 32 32 32 33 33 30 30 30 30 28 23 27 30 32 29 27 29 32 31 32 30 29 30 30 32 32 30 29 31 32 31 31 31 31 31 31 31 32 31 33 33 33 32 32 32
30 29 29 26 26 29 31 30 30 30 31 30 28 30 31 32 30 29 27 28 30 31 33 34 32 31 31 32 32 32 38 32 31 31 32 29 29 30 31 31 31 31 31 30 30 31 33 30 29 30 32 32 32 32
30 31 31 29 27 28 29 30 29 28 27 26 26 27 27 30 29 28 25 24 28 30 31 31 31 32 31 32 31 31 34 29 33 37 38 37 36 34 30 30 31 31 31 29 30 32 32 32 32 32 32 31 32 31